User: anonymous   Login
Location: Arcueil
(48.7999°N, 2.3326°E)
Time: 07:30:05
(UTC+00:00)
Language:

Cosmos 540 Rocket - Orbit

View from above orbital plane
View from above orbital plane
View from above satellite
View from above satellite

Ground track
Ground track

The orbit data is extracted from the following two-line orbital elements,

1  6324U 72104B   24110.22560130  .00000787  00000-0  23655-3 0  9992
2  6324  74.0764 155.0316 0008910   1.7514 358.3673 14.44282801696046
Epoch (UTC): 19 April 2024 05:24:51
Eccentricity: 0.0008910
inclination: 74.0764°
perigee height: 738 km
apogee height: 751 km
right ascension of ascending node: 155.0316°
argument of perigee: 1.7514°
revolutions per day: 14.44282801
mean anomaly at epoch: 358.3673°
orbit number at epoch: 69604

The dashed part of the orbit path shows where the satellite is in the earth's shadow,  

DLR